EW7117 Weather Reports


time (UTC)temp
C
wind
direction
speed
KPH
gust
KPH
rain 1hr
cm
rain 24hr
cm
rain mn
cm
humidity
%
barometer
mb
20260510021539 13 174 14.5 29.0 0.00 0.00 0.00 79 1003.0
20260510020038 13 184 14.5 27.4 0.00 0.00 0.00 78 1002.9
20260510014539 13 173 8.0 27.4 0.00 0.00 0.00 78 1002.5
20260510013040 13 162 4.8 20.9 0.00 0.00 0.00 77 1003.0
20260510011534 13 165 8.0 25.7 0.00 0.00 0.00 76 1003.1
20260510010032 13 163 12.9 27.4 0.00 0.00 0.00 75 1003.0
20260510004532 14 154 11.3 19.3 0.00 0.00 0.00 74 1002.9
20260510003044 14 157 4.8 17.7 0.00 0.00 0.00 72 1002.8
20260510001530 14 167 0.0 16.1 0.00 0.00 0.00 71 1002.8
20260510000029 15 154 6.4 16.1 0.00 0.00 0.00 71 1003.0
20260509234529 15 163 0.0 8.0 0.00 0.00 0.00 70 1003.3
20260509233030 15 180 0.0 14.5 0.00 0.00 0.00 69 1003.4
20260509231515 15 185 6.4 19.3 0.00 0.00 0.00 68 1003.5
20260509230015 15 165 8.0 20.9 0.00 0.00 0.00 68 1003.5
20260509224516 15 173 0.0 25.7 0.00 0.00 0.00 69 1003.5
20260509223005 15 188 9.7 27.4 0.00 0.00 0.00 67 1003.4
20260509221504 15 167 4.8 24.1 0.00 0.00 0.00 68 1003.4
20260509220005 15 190 14.5 25.7 0.00 0.00 0.00 67 1003.4
20260509214501 15 194 16.1 29.0 0.00 0.00 0.00 65 1003.7
20260509213101 15 190 25.7 35.4 0.00 0.00 0.00 64 1003.7
20260509211603 15 177 19.3 35.4 0.00 0.00 0.00 64 1003.6
20260509210110 16 200 0.0 30.6 0.00 0.00 0.00 62 1003.6
20260509204558 16 192 12.9 32.2 0.00 0.00 0.00 60 1003.9
20260509203058 16 176 24.1 41.8 0.00 0.00 0.00 60 1003.6
20260509201600 16 145 17.7 38.6 0.00 0.00 0.00 55 1003.5
20260509194551 17 227 3.2 27.4 0.00 0.00 0.00 48 1003.8
20260509193054 17 210 0.0 25.7 0.00 0.00 0.00 47 1003.8
20260509191544 16 194 11.3 33.8 0.00 0.00 0.00 52 1004.2
20260509190127 16 193 12.9 29.0 0.00 0.00 0.00 51 1004.6
20260509184537 16 193 8.0 20.9 0.00 0.00 0.00 51 1004.7
20260509183032 17 209 1.6 29.0 0.00 0.00 0.00 49 1004.8
20260509181522 16 173 4.8 29.0 0.00 0.00 0.00 48 1004.7
20260509180021 16 184 12.9 25.7 0.00 0.00 0.00 47 1004.9
20260509174518 16 187 4.8 19.3 0.00 0.00 0.00 51 1005.1
20260509173024 16 153 11.3 22.5 0.00 0.00 0.00 47 1005.3
20260509171521 16 192 14.5 29.0 0.00 0.00 0.00 46 1005.5
20260509170105 16 193 1.6 20.9 0.00 0.00 0.00 44 1005.7
20260509164557 16 197 8.0 27.4 0.00 0.00 0.00 44 1005.8
20260509163104 16 178 11.3 24.1 0.00 0.00 0.00 42 1006.1
20260509161556 16 152 3.2 20.9 0.00 0.00 0.00 43 1006.5
20260509160049 15 169 0.0 0.0 0.00 0.00 0.00 44 1006.9
20260509154545 15 194 6.4 22.5 0.00 0.00 0.00 45 1007.1
20260509153044 15 190 6.4 25.7 0.00 0.00 0.00 43 1007.3
20260509151541 14 191 9.7 22.5 0.00 0.00 0.00 46 1007.5
20260509150036 14 183 9.7 22.5 0.00 0.00 0.00 47 1007.7
20260509144533 13 175 8.0 27.4 0.00 0.00 0.00 48 1007.8
20260509143008 13 159 14.5 25.7 0.00 0.00 0.00 48 1007.9
20260509141510 13 169 9.7 25.7 0.00 0.00 0.00 50 1008.1
20260509140002 12 193 19.3 27.4 0.00 0.00 0.00 47 1008.3
20260509134501 12 193 22.5 35.4 0.00 0.00 0.00 48 1008.5
20260509133106 12 157 19.3 33.8 0.00 0.00 0.00 47 1008.6
20260509131557 12 173 9.7 17.7 0.00 0.00 0.00 47 1008.6
20260509130056 12 178 11.3 24.1 0.00 0.00 0.00 52 1008.6
20260509124555 11 157 6.4 16.1 0.00 0.00 0.00 52 1008.5
20260509123044 10 186 12.9 22.5 0.00 0.00 0.00 51 1008.8
20260509121554 10 178 6.4 25.7 0.00 0.00 0.00 54 1008.8
20260509120042 10 181 9.7 16.1 0.00 0.00 0.00 55 1009.0
20260509114551 8 190 6.4 17.7 0.00 0.00 0.00 57 1009.1
20260509113032 8 185 6.4 12.9 0.00 0.00 0.00 61 1009.0
20260509111527 7 189 4.8 11.3 0.00 0.00 0.00 62 1009.0
20260509110023 7 187 3.2 14.5 0.00 0.00 0.00 64 1008.9
20260509104542 6 197 3.2 12.9 0.00 0.00 0.00 66 1008.8
20260509103038 6 190 0.0 9.7 0.00 0.00 0.00 67 1008.6
20260509101536 6 193 0.0 12.9 0.00 0.00 0.00 68 1008.6
20260509100029 5 194 1.6 11.3 0.00 0.00 0.00 67 1008.6
20260509094531 5 188 1.6 14.5 0.00 0.00 0.00 68 1008.7
20260509093026 5 234 0.0 3.2 0.00 0.00 0.00 67 1008.7
20260509091525 5 183 0.0 12.9 0.00 0.00 0.00 67 1008.8
20260509090049 5 186 0.0 6.4 0.00 0.00 0.00 68 1008.8
20260509084527 5 186 0.0 11.3 0.00 0.00 0.00 67 1008.8
20260509083041 5 184 0.0 11.3 0.00 0.00 0.00 66 1008.9
20260509081527 5 187 0.0 12.9 0.00 0.00 0.00 67 1009.0
20260509080018 5 184 1.6 11.3 0.00 0.00 0.00 66 1009.2
20260509074527 5 206 0.0 8.0 0.00 0.00 0.00 67 1009.2
20260509073018 5 188 0.0 0.0 0.00 0.00 0.00 68 1009.2
20260509071513 5 187 0.0 0.0 0.00 0.00 0.00 67 1009.2
20260509070109 5 186 0.0 8.0 0.00 0.00 0.00 66 1009.2
20260509064556 5 183 0.0 0.0 0.00 0.00 0.00 66 1009.2
20260509063114 5 184 0.0 0.0 0.00 0.00 0.00 65 1009.4
20260509061556 5 183 0.0 0.0 0.00 0.00 0.00 65 1009.6
20260509060053 6 184 0.0 9.7 0.00 0.00 0.00 67 1009.8
20260509054548 6 183 0.0 9.7 0.00 0.00 0.00 65 1009.9
20260509053047 6 175 1.6 9.7 0.00 0.00 0.00 65 1009.9
20260509051545 6 178 0.0 9.7 0.00 0.00 0.00 65 1009.9
20260509050051 6 193 0.0 11.3 0.00 0.00 0.00 63 1009.9
20260509044538 6 184 6.4 12.9 0.00 0.00 0.00 63 1010.0
20260509043043 7 190 1.6 11.3 0.00 0.00 0.00 62 1010.0
20260509041525 7 192 0.0 9.7 0.00 0.00 0.00 63 1010.0
20260509040022 7 189 0.0 0.0 0.00 0.00 0.00 66 1009.9
20260509034522 7 189 3.2 12.9 0.00 0.00 0.00 65 1009.9
20260509033018 7 188 0.0 0.0 0.00 0.00 0.00 66 1009.9
20260509031511 7 185 3.2 11.3 0.00 0.00 0.00 64 1010.0
20260509030018 7 192 1.6 11.3 0.00 0.00 0.00 62 1010.1
20260509024510 7 215 0.0 12.9 0.00 0.00 0.00 64 1010.2
20260509023010 7 231 0.0 0.0 0.00 0.00 0.00 62 1010.1